Regional Weather Roundup
Issued by NWS

Home | Current Version | Previous Version | Graphics & Text | Print | Product List | Glossary On
Versions: 1 2 3 4 5 6 7 8 9 10 11 12 13 14 15 16 17 18 19 20 21 22 23 24 25 26 27 28 29 30 31 32 33 34 35 36 37 38 39 40 41 42 43 44 45 46 47 48 49 50
000
ASUS43 KLOT 270410
RWRIL

ILLINOIS REGIONAL WEATHER ROUNDUP
NATIONAL WEATHER SERVICE CHICAGO/ROMEOVILLE IL
1000 PM CST FRI DEC 26 2014

NOTE: "FAIR" INDICATES FEW OR NO CLOUDS BELOW 12,000 FEET WITH NO
SIGNIFICANT WEATHER AND/OR OBSTRUCTIONS TO VISIBILITY.

* THESE STATIONS ARE NOT UNDER NWS QUALITY CONTROL. THEY ALSO MAY NOT
  REPORT WEATHER SUCH AS PRECIPITATION OR FOG.

ILZ001-002-007-009-015-016-024-270500-
NORTHWEST ILLINOIS

CITY           SKY/WX    TMP DP  RH WIND       PRES   REMARKS
MOLINE         CLOUDY    43  39  86 E3        29.96S
STERLING*      CLOUDY    45  39  81 SE7       29.99F
SAVANNA*       CLOUDY    42  37  81 CALM      29.99R
$$

ILZ003-004-008-010-011-017-018-270500-
NORTH CENTRAL ILLINOIS

CITY           SKY/WX    TMP DP  RH WIND       PRES   REMARKS
ROCKFORD       CLOUDY    42  38  85 CALM      30.02F
FREEPORT*      CLOUDY    40  37  90 SE6       30.00F
ROCHELLE*      CLOUDY    42  40  94 CALM      30.01S
DE KALB*       CLOUDY    41  39  93 SE7       30.01S
PERU*          CLOUDY    46  42  86 S8        30.01S
$$

ILZ005-006-012>014-019>023-270500-
NORTHEAST ILLINOIS

CITY           SKY/WX    TMP DP  RH WIND       PRES   REMARKS
CHICAGO-OHARE  MOCLDY    46  41  82 S9        30.01F
CHICAGO-MIDWAY PTCLDY    49  42  77 S8        30.03F
AURORA         CLOUDY    47  41  80 S6        30.02S
LANSING*       CLOUDY    46  42  87 S7        30.05S
JOLIET*        CLOUDY    46  42  88 S7        30.03S
WAUKEGAN       CLOUDY    43  38  82 CALM      30.01F
DUPAGE AIRPORT CLOUDY    47  41  80 S8        30.02R
KANKAKEE*      CLOUDY    45  42  90 S9        30.06S
WHEELING       CLOUDY    47  41  80 S9        30.02F
MORRIS*        CLOUDY    45  43  95 S8        30.02R
ROMEOVILLE*    CLOUDY    45  43  92 S9        30.03S
NORTHERLY ISL    N/A     48  40  73 S5          N/A
$$

LMZ740>746-270500-
SOUTHERN LAKE MICHIGAN

STATION/POSITION SKY/WX   TEMP    WIND        PRES    VSBY  WAVE
                          AIR SEA DIR/SP/G                  HT/PER
                          (F)     (DEG/KT/KT) (MB)    (MI)  (FT/S)
WAUKEGAN HARBOR            39      CALM  /  6   N/A
HARRISON CRIB              48     190/ 11/ 14   N/A
BURNHAM HARBOR             47     190/  7/ 13   N/A
CALUMET HARBOR             48     170/  5/  7 1016.0F
MICHIGAN CITY              48     160/  8/ 12   N/A
$$

ILZ025>027-034>036-040-047-049-050-058-095>099-270500-
WEST-CENTRAL ILLINOIS

CITY           SKY/WX    TMP DP  RH WIND       PRES   REMARKS
QUINCY         CLOUDY    52  45  77 S13       29.97R
GALESBURG*     CLOUDY    47  43  84 SE6       29.97R
MACOMB*        PTCLDY    43  40  91 S7        29.99S
JACKSONVILLE*  CLOUDY    52  45  77 S10       30.02R
PITTSFIELD*    DRIZZLE   52  47  83 S12       30.01R
$$

ILZ028>032-037-038-041>044-048-051>054-059>061-270500-
CENTRAL ILLINOIS

CITY           SKY/WX    TMP DP  RH WIND       PRES   REMARKS
PONTIAC        PTCLDY    43  42  95 S9        30.03F
BLOOMINGTON    CLEAR     45  43  93 S14       30.03F
DECATUR        CLOUDY    50  43  77 S13       30.06S
PEORIA         CLEAR     47  41  80 S10       30.00S
LACON*         PTCLDY    46  41  84 S8        30.00S
LINCOLN*       PTCLDY    47  43  87 S13       30.03R
SPRINGFIELD    CLOUDY    49  43  80 S16       30.02F
TAYLORVILLE    CLOUDY    46  43  87 S13       30.05R
$$

ILZ033-039-045-046-055>057-062-063-270500-
EAST-CENTRAL ILLINOIS

CITY           SKY/WX    TMP DP  RH WIND       PRES   REMARKS
CHAMPAIGN      CLOUDY    48  43  82 S12       30.07S
DANVILLE*      CLOUDY    46  42  86 S8        30.06S
RANTOUL*       CLOUDY    48  44  87 S10       30.06F
MATTOON        CLOUDY    48  43  82 S12       30.08R
PARIS*         CLOUDY    48  44  85 S12       30.10F
$$

ILZ079-100>102-270500-
SOUTHWEST ILLINOIS

CITY           SKY/WX    TMP DP  RH WIND       PRES   REMARKS
ALTON          CLOUDY    50  41  72 S13       30.05S
BELLEVILLE     MOCLDY    49  42  76 S12       30.07R
CAHOKIA*       MOCLDY    50  42  74 S7        30.05S
SPARTA*        CLOUDY    49  39  68 S14G20    30.07F
$$

ILZ064>066-069>071-074>076-080>082-084>086-088>090-092>094-270500-
SOUTH-CENTRAL ILLINOIS

CITY           SKY/WX    TMP DP  RH WIND       PRES   REMARKS
CARBONDALE     CLOUDY    50  38  63 S8        30.13R
CAIRO*         CLOUDY    50  40  68 SE8       30.16R
EFFINGHAM*     CLOUDY    49  40  70 S7        30.12R
MARION         CLOUDY    50  39  66 S12       30.14S
MT. VERNON     MOCLDY    48  39  71 S10       30.12R
CENTRALIA*     MOCLDY    49  39  68 S14       30.09S
SALEM*         MOCLDY    52  42  69 S12       30.10S
METROPOLIS*    CLOUDY    48  39  70 S6        30.17R
$$

ILZ067-068-072-073-078-083-087-091-270500-
SOUTHEAST ILLINOIS

CITY           SKY/WX    TMP DP  RH WIND       PRES   REMARKS
LAWRENCEVILLE  MOCLDY    45  41  86 S9        30.14R
FLORA*         PTCLDY    48  41  77 S12       30.12S
FAIRFIELD*     MOCLDY    48  41  78 S10       30.12S
HARRISBURG*    CLOUDY    50  37  59 S8        30.16S
ROBINSON*      MOCLDY    47  41  78 S10       30.14R
CARMI*         CLOUDY    49  43  78 S8        30.14S
$$

ABBREVIATIONS USED IN REMARKS
   TC - TEMPERATURE IN CELSIUS
  WCI - WIND CHILL INDEX
   HX - HEAT INDEX
  VSB - VISIBILITY
$$



USA.gov is the U.S. government's official web portal to all federal, state and local government web resources and services.